Regional Weather Roundup
Issued by NWS

Home | Current Version | Previous Version | Graphics & Text | Print | Product List | Glossary Off
Versions: 1 2 3 4 5 6 7 8 9 10 11 12 13 14 15 16 17 18 19 20 21 22 23 24 25 26 27 28 29 30 31 32 33 34 35 36 37 38 39 40 41 42 43 44 45 46 47 48 49 50

000
ASUS43 KMKX 190659
RWRWI

WISCONSIN REGIONAL WEATHER ROUNDUP
NATIONAL WEATHER SERVICE MILWAUKEE/SULLIVAN WI
200 AM CDT THU APR 19 2018

NOTE: "FAIR" INDICATES FEW OR NO CLOUDS BELOW 12,000 FEET WITH NO
SIGNIFICANT WEATHER AND/OR OBSTRUCTIONS TO VISIBILITY.

WIZ001-002-006>008-014>016-023>028-190800-
NORTHWEST WISCONSIN

CITY           SKY/WX    TMP DP  RH WIND       PRES   REMARKS
SUPERIOR ARPT  FAIR      22  18  84 S3        30.28R
ASHLAND        FAIR      23  15  71 NW7       30.25R WCI  15
HAYWARD        FAIR      20  14  77 CALM      30.24R
SIREN          FAIR      24  16  70 CALM      30.26R
CUMBERLAND     FAIR      25  12  58 N5        30.23R WCI  19
RICE LAKE      FAIR      27  15  61 W3        30.23R
CHETEK         FAIR      25  17  69 N3        30.22R
LADYSMITH      FAIR      30  15  52 N7        30.21R WCI  23
EAU CLAIRE     FAIR      27  15  61 CALM      30.21R
MENOMONIE      FAIR      34  14  44 CALM      30.23R
NEW RICHMOND   FAIR      27  14  58 N6        30.25R WCI  20
OSCEOLA        FAIR      31  14  50 NW5       30.28R WCI  26
$$

WIZ003>005-009-010-017-018-190800-
NORTH CENTRAL WISCONSIN

CITY           SKY/WX    TMP DP  RH WIND       PRES   REMARKS
MANITOWISH WTR FAIR      28  14  57 N3        30.17R
ARBOR VITAE    FAIR      25  15  66 N3        30.15S
WOODRUFF       FAIR      25  15  66 N3        30.15S
RHINELANDER    FAIR      29  15  56 N5        30.15R WCI  24
EAGLE RIVER    FAIR      27  14  58 N3        30.15R
LAND O LAKES   FAIR      29  18  62 N6        30.16S WCI  23
PHILLIPS       FAIR      28  14  54 N6        30.18R WCI  22
TOMAHAWK       FAIR      28  14  56 N3        30.16R
MEDFORD        FAIR      28  15  57 N7        30.15R WCI  21
MERRILL          N/A     29  17  63 NW5       30.15S WCI  23
$$

WIZ029-030-035-036-043>047-190800-
CENTRAL WISCONSIN

CITY           SKY/WX    TMP DP  RH WIND       PRES   REMARKS
WAUSAU         FAIR      29  17  61 NW6       30.13R WCI  23
MOSINEE        FAIR      32  18  55 N10       30.14R WCI  24
MARSHFIELD     FAIR      32  17  54 N10       30.13R WCI  24
STEVENS POINT  FAIR      30  15  53 N7        30.13R WCI  24
WAUPACA        FAIR      34  19  52 N6        30.11R WCI  29
WAUTOMA        FAIR      30  20  66 N6        30.12R WCI  24
WISC RAPIDS    FAIR      31  16  54 N9        30.15R WCI  23
CAMP DOUGLAS   FAIR      20  19  97 W8        30.15R WCI  10
$$

WIZ011>013-019>022-031-037>040-048>050-190800-
NORTHEAST WISCONSIN

CITY           SKY/WX    TMP DP  RH WIND       PRES   REMARKS
ANTIGO         FAIR      25  14  62 N7        30.12R WCI  17
SHAWANO        FAIR      35  19  52 N9        30.11R WCI  27
OCONTO         FAIR      33  18  54 N7        30.10R WCI  27
STURGEON BAY   FAIR      31  26  82 N13       30.09R WCI  21
GREEN BAY      FAIR      33  20  58 N15       30.09R WCI  23
MANITOWOC      FAIR      32  20  61 N10       30.06R WCI  24
APPLETON       FAIR      32  18  55 N13       30.07R WCI  22
CLINTONVILLE   FAIR      34  16  47 N9        30.11R WCI  26
OSHKOSH        FAIR      32  20  61 N10       30.09R WCI  24
$$

WIZ032>034-041-042-053>061-190800-
SOUTHWEST WISCONSIN

CITY           SKY/WX    TMP DP  RH WIND       PRES   REMARKS
LA CROSSE      FAIR      28  26  92 CALM      30.19R
SPARTA         FOG       18  17  96 CALM      30.18R VSB 1/2
VIROQUA        FAIR      28  28 100 N3        30.14R
BOSCOBEL       FOG       31  29  92 CALM      30.16R VSB 3/4
PRAIRIE DU CHI FAIR      32  29  89 N3        30.17R
PLATTEVILLE    CLOUDY    32  32 100 NW9       30.12R WCI  24
$$

WIZ056-057-062-063-064-067-068-190800-
SOUTH CENTRAL WISCONSIN

CITY           SKY/WX    TMP DP  RH WIND       PRES   REMARKS
REEDSBURG      FAIR      27  27 100 CALM      30.12R
BARABOO/DELLS  FAIR      27  26  98 CALM      30.12R FOG
LONE ROCK      NOT AVBL
MINERAL POINT  CLOUDY    34  34 100 NW7       30.10R WCI  28
MADISON        FAIR      31  27  85 N8        30.10R WCI  23
MIDDLETON      CLOUDY    33  28  83 N9        30.10R WCI  25
WATERTOWN      FAIR      30  29  93 N6        30.07R WCI  24
MONROE         CLOUDY    32  30  93 N15G21    30.07R WCI  22
JANESVILLE     CLOUDY    34  32  93 N9        30.06R WCI  26
$$

WIZ051-052-058>065-066-070>072-190800-
SOUTHEAST WISCONSIN

CITY           SKY/WX    TMP DP  RH WIND       PRES   REMARKS
MILWAUKEE      CLOUDY    36  29  75 N15G22    30.04R WCI  27
WAUKESHA       CLOUDY    32  28  86 N6        30.05R WCI  26
MILWAUKEE/TIMM CLOUDY    32  27  80 N8        30.06R WCI  25
RACINE         CLOUDY    36  32  85 N12G21    30.05R WCI  28
BURLINGTON     CLOUDY    33  30  90 N9        30.04R WCI  25
KENOSHA        SLEET     36  31  82 N10       30.04R WCI  28
FOND DU LAC    FAIR      31  20  63 N9        30.09R WCI  23
SHEBOYGAN      FAIR      32  21  64 N12       30.06R WCI  23
WEST BEND      FAIR      30  27  86 N5        30.05R WCI  25
JUNEAU         FAIR      27  22  80 N7        30.08R WCI  20
$$

LSZ147-162-190800-
LAKE SUPERIOR

STATION/POSITION TIME  TEMP    WIND        PRES    WAVE
                       AIR SEA DIR/SP/G            HT/PER
                 (UTC) (F)     (DEG/KT/KT) (MB)    (FT/S)
DEVILS ISLAND    0600   36     290/  8/  9 1025.0R
SAXON HARBOR     0640   23     190/  4/  6 1023.7R
$$

LMZ867-665-643>646-190800-
LAKE MICHIGAN

STATION/POSITION TIME  TEMP    WIND        PRES    WAVE
                       AIR SEA DIR/SP/G            HT/PER
                 (UTC) (F)     (DEG/KT/KT) (MB)    (FT/S)
NORTHPORT PIER   0640   33                 1018.6R
KEWAUNEE LAKESHO 0630   34     340/ 10/ 17 1017.1R
SHEBOYGAN LAKESH 0600   36     360/ 20/ 22 1017.4R
PORT WASHINGTON  0630   32     320/  5/  6 1018.6R
MILWAUKEE LAKESH 0630   36      10/ 15/ 18   N/A
KENOSHA   LAKESH 0600   34                 1016.3
$$

TC  - TEMPERATURE IN CELSIUS
VSB - VISIBILITY IN STATUTE MILES
WCI - WIND CHILL INDEX
HX  - HEAT INDEX




USA.gov is the U.S. government's official web portal to all federal, state and local government web resources and services.